Weather Roundup
Issued by NWS Chicago, IL

Home | Current Version | Previous Version | Text Only | Print | Product List | Glossary Off
Versions: 1 2 3 4 5 6 7 8 9 10 11 12 13 14 15 16 17 18 19 20 21 22 23 24 25 26 27 28 29 30 31 32 33 34 35 36 37 38 39 40 41 42 43 44 45 46 47 48 49 50

000
NZUS59 KLOT 180108
HRRLOT

CHICAGO AREA WEATHER ROUNDUP
NATIONAL WEATHER SERVICE CHICAGO/ROMEOVILLE IL
700 PM CST SAT FEB 17 2018

NOTE: "FAIR" INDICATES FEW OR NO CLOUDS BELOW 12,000 FEET WITH NO
SIGNIFICANT WEATHER AND/OR OBSTRUCTIONS TO VISIBILITY.

* THESE STATIONS ARE NOT UNDER NWS QUALITY CONTROL. THEY ALSO MAY NOT
  REPORT WEATHER SUCH AS PRECIPITATION OR FOG.

ILZ005-006-012>014-019>023-180200-
NORTHEAST ILLINOIS

CITY           SKY/WX    TMP DP  RH WIND       PRES   REMARKS
OHARE          CLOUDY    33  29  85 W13       30.00R WCI  24
MIDWAY         CLOUDY    33  30  88 W12       30.02R WCI  24
AURORA         CLOUDY    30  26  85 W18       30.04R WCI  18
LANSING*       CLOUDY    32  31  95 W14       30.02R WCI  22
JOLIET*        CLOUDY    33  30  90 W9G16     30.06R WCI  25
WAUKEGAN       MOCLDY    31  28  89 W7        29.99R FOG     WCI  24
DUPAGE AIRPORT MOCLDY    30  27  88 W17G25    30.02R FOG     WCI  18
WHEELING       CLOUDY    33  31  92 W12       30.02R WCI  24
KANKAKEE*      CLOUDY    32  28  85 W18G24    30.07R WCI  21
MORRIS*        CLOUDY    32  28  85 W16       30.05R WCI  21
LEWIS AIRPORT* CLOUDY    32  29  90 W18       30.04R WCI  20
NORTHERLY ISL    N/A     32  30  93 W10         N/A  WCI  24
$$

WIZ051-052-058>065-066-070>072-180200-
SOUTHEAST WISCONSIN

CITY           SKY/WX    TMP DP  RH WIND       PRES   REMARKS
MILWAUKEE      MOCLDY    30  27  88 W7        29.98R WCI  23
KENOSHA*       MOCLDY    30  26  85 W10       29.99R FOG     WCI  21
RACINE*        MOCLDY    31  28  89 W8        30.01R FOG     WCI  23
BURLINGTON     CLOUDY    29  24  81 W12       30.00R WCI  19
WAUKESHA       CLOUDY    27  25  93 W10       29.99R WCI  17
WEST BEND      CLOUDY    28  27  93 W12       29.97R WCI  18
$$

INZ001>003-010>013-019-020-180200-
NORTHWEST INDIANA

CITY           SKY/WX    TMP DP  RH WIND       PRES   REMARKS
GARY*          CLOUDY    34  32  93 W14       30.02R WCI  24
MICHIGAN CITY* NOT AVBL
RENSSELAER*    NOT AVBL
VALPARAISO     CLOUDY    34  31  88 W16       30.00R WCI  24
$$

LMZ740>746-180200-
SOUTHERN LAKE MICHIGAN

STATION/POSITION TIME  SKY/WX   TEMP WIND        PRES    VSBY
                                AIR  DIR/SP/G
                 (UTC)          (F)  (DEG/KT/KT) (MB)    (MI)
HARRISON CRIB    0040            33  270/ 17/ 19   N/A
BURNHAM HARBOR   0100            32  250/  7/ 12   N/A
CALUMET HARBOR   0042            32  240/  7/ 15 1015.4R
BURNS HARBOR     0040            32  240/ 12/ 17 1015.9R
MICHIGAN CITY    0040            32  210/ 13/ 14   N/A
$$

ABBREVIATIONS USED IN REMARKS
   TC - TEMPERATURE IN CELSIUS
  WCI - WIND CHILL INDEX
   HX - HEAT INDEX
  VSB - VISIBILITY
$$




USA.gov is the U.S. government's official web portal to all federal, state and local government web resources and services.